Flag for Canada Weather past 2 weeks in Peterborough, Ontario, Canada

37 °F


Feels Like: 37 °F
Forecast: 36 / 54 °F
Wind: No wind

Location: Peterborough Airport

Current Time: Oct 10, 2015 at 4:06:04 AM

Latest Report: Oct 10, 2015 at 3:00 AM

Visibility: 1 mi

Pressure: 30.15 "Hg

Humidity: 100%

Dew point: 37 °F

Location of PeterboroughLocation

Historic Weather in Peterborough — Graph


Peterborough temperature yesterday

Maximum temperature yesterday: 61 °F (at 1:00 PM)
Minimum temperature yesterday: 41 °F (at 11:00 PM)
Average temperature yesterday: 50 °F

Past Weeks' High & Low Weather Summary

High70 °F (Sep 25, 4:00 PM)100% (Sep 26, 7:00 AM)30.51 "Hg (Sep 26, 7:00 AM)
Low32 °F (Oct 8, 7:00 AM)35% (Sep 26, 5:00 PM)29.78 "Hg (Oct 9, 5:00 AM)
Average53 °F77%30.21 "Hg
* Reported Sep 25 3:00 AM — Oct 10 3:00 AM, Peterborough, Weather by CustomWeather, © 2015

Note: Actual official high and low records may vary slightly from our data, if they occured in-between our weather recording intervals... More about our weather records


Peterborough weather history for previous 24 hours

Time TempWeatherWind HumidityBarometerVisibility
3:00 AM
Sat, Oct 10
37 °FFog.No wind100%30.15 "Hg1 mi
2:59 AM37 °FFog.No wind100%30.15 "Hg1 mi
2:00 AM41 °FClear.3 mph93%30.14 "Hg9 mi
1:00 AM41 °FClear.5 mph100%30.12 "Hg9 mi
12:00 AM45 °FClear.7 mph87%30.11 "Hg9 mi
11:00 PM
Fri, Oct 9
41 °FPassing clouds.6 mph100%30.09 "Hg9 mi
10:00 PM43 °FClear.8 mph100%30.07 "Hg9 mi
9:00 PM43 °FClear.6 mph93%30.06 "Hg9 mi
8:00 PM45 °FClear.5 mph87%30.03 "Hg9 mi
7:00 PM50 °FPartly sunny.8 mph76%29.99 "Hg9 mi
6:00 PM52 °FMostly cloudy.16 mph77%29.96 "Hg9 mi
5:00 PM54 °FOvercast.12 mph77%29.93 "Hg9 mi
4:00 PM52 °FOvercast.16 mph88%29.88 "Hg9 mi
3:00 PM54 °FOvercast.16 mph88%29.84 "Hg9 mi
2:00 PM55 °FOvercast.17 mph88%29.81 "Hg9 mi
1:50 PM55 °FFog.14 mph94%29.81 "Hg6 mi
1:00 PM61 °FMostly cloudy.15 mph83%29.79 "Hg9 mi
12:00 PM59 °FMostly cloudy.13 mph94%29.78 "Hg9 mi
11:00 AM54 °FFog.No wind100%29.78 "Hg4 mi
10:00 AM52 °FFog.2 mph100%29.78 "Hg3 mi
9:00 AM50 °FFog.No wind100%29.78 "Hg1 mi
8:58 AM50 °FFog.2 mph100%29.78 "Hg1 mi
8:00 AM50 °FFog.No wind100%29.78 "Hg2 mi
7:58 AM50 °FFog.No wind100%29.78 "Hg2 mi
7:02 AM50 °FFog.6 mph100%29.78 "Hg6 mi
6:00 AM50 °FLow clouds.2 mph100%29.78 "Hg7 mi
5:00 AM48 °FLight rain. Low clouds.2 mph100%29.78 "Hg8 mi
4:57 AM48 °FLight rain. Low clouds.2 mph100%29.78 "Hg8 mi
4:00 AM48 °FLight rain. Mostly cloudy.No wind100%29.80 "Hg9 mi
Weather by CustomWeather, © 2015

See weather overviewHow to use our weather pages